Weather in Vondanka

Russia / Kirov Oblast     59°05′20″N   47°49′53″E
temp.,
°C
wind,
m/s
gust,
m/s
humid.,
%
clouds,
%
prec.,
mm/h
press.,
hPa
HPBL,
m
17 may, mon
mon1700:00+14sw25890 0.0 101397
03:00+13sw39920 0.0 1014192
06:00+16wsw410780 0.0 1015422
09:00+20wsw58592 0.0 10161149
12:00+22w574811 0.0 10161830
15:00+23wnw474499 0.0 10172036
18:00+20nnw2563100 0.0 1018328
21:00+14ne228738 0.0 101926
18 may, tue
tue1800:00+12ene24936 0.0 102065
03:00+11e2393100 0.0 102171
06:00+14e2478100 0.0 1022223
09:00+18e345999 0.0 1022618
12:00+22ese2345100 0.0 10211043
15:00+23se334081 0.0 10211161
18:00+21sse255658 0.0 1020209
21:00+15se267193 0.0 102193
19 may, wed
wed1900:00+13se398080 0.0 1021160
03:00+12se288479 0.0 1021156
06:00+16se397183 0.0 1021257
09:00+22sse465122 0.0 1020673
12:00+25sse45415 0.0 10191233
15:00+26sse45375 0.0 10191438
18:00+23sse36494 0.0 1018259
21:00+16sse22725 0.0 101839
20 may, thu
thu2000:00+14sse29755 0.0 1018162
03:00+13se28811 0.0 1018135
06:00+17sse38712 0.0 1017241
09:00+23sse47500 0.0 1016751
12:00+26sse57385 0.0 10161872
15:00+26sse57311 0.0 10151862
18:00+23sse48465 0.0 1014505
21:00+17sse311735 0.0 1014248
21 may, fri
fri2100:00+15sse312765 0.0 1014310
03:00+13sse398136 0.0 1014192
06:00+16s377269 0.0 1014275
09:00+21s4762100 0.0 1014967
12:00+22ssw5858100 0.5 10141601
15:00+20s4862100 1.8 1014867
18:00+20wsw375887 0.0 1014798
21:00+14sw23740 0.0 101655